FDX9006 YSCB-YPAD

Flight info

Callsign FDX9006
Flight time 1h 28m
Altitude 30000
Route CB W148 WG Q60 KAKLU H309 AD
Aircraft A306/H-SDE3FGHIRWY/LB1

Departure

Time 2026-05-01 10:20
Airport Canberra Airport (YSCB)

Arrival

Time 2026-05-01 11:48
Airport Adelaide International Airport (YPAD)
Time Latitude Longitude Altitude Speed Heading
2026-05-01 09:57 -35.30966 149.19127 1886 ft 0 kts 270°
2026-05-01 10:11 -35.30966 149.19130 1886 ft 2 kts 270°
2026-05-01 10:12 -35.30966 149.19162 1883 ft 4 kts 271°
2026-05-01 10:12 -35.30967 149.19195 1880 ft 4 kts 269°
2026-05-01 10:12 -35.30957 149.19246 1875 ft 0 kts 227°
2026-05-01 10:15 -35.30960 149.19244 1875 ft 2 kts 218°
2026-05-01 10:16 -35.30986 149.19242 1882 ft 7 kts 184°
2026-05-01 10:16 -35.31064 149.19239 1881 ft 15 kts 180°
2026-05-01 10:16 -35.31312 149.19241 1881 ft 19 kts 180°
2026-05-01 10:17 -35.31435 149.19269 1881 ft 17 kts 142°
2026-05-01 10:17 -35.31455 149.19294 1879 ft 0 kts 127°
2026-05-01 10:18 -35.31456 149.19297 1879 ft 2 kts 125°
2026-05-01 10:19 -35.31471 149.19350 1879 ft 10 kts 98°
2026-05-01 10:19 -35.31464 149.19423 1876 ft 7 kts 55°
2026-05-01 10:19 -35.31419 149.19447 1877 ft 11 kts
2026-05-01 10:20 -35.30475 149.19444 1883 ft 136 kts 359°
2026-05-01 10:20 -35.29310 149.19439 2051 ft 190 kts
2026-05-01 10:20 -35.27922 149.19433 2958 ft 206 kts
2026-05-01 10:20 -35.26448 149.19433 3952 ft 220 kts
2026-05-01 10:21 -35.24831 149.19447 4375 ft 244 kts
2026-05-01 10:21 -35.21271 149.19492 5820 ft 263 kts
2026-05-01 10:21 -35.19443 149.19684 6691 ft 265 kts 11°
2026-05-01 10:22 -35.15861 149.20965 8410 ft 272 kts 19°
2026-05-01 10:22 -35.12206 149.22389 10113 ft 280 kts 14°
2026-05-01 10:23 -35.10254 149.22884 10581 ft 297 kts
2026-05-01 10:23 -35.05868 149.23132 11177 ft 334 kts 360°
2026-05-01 10:23 -35.03494 149.23265 11463 ft 351 kts
2026-05-01 10:24 -34.98506 149.22637 12349 ft 371 kts 335°
2026-05-01 10:24 -34.94598 149.18462 13600 ft 380 kts 310°
2026-05-01 10:25 -34.92465 149.12563 14739 ft 393 kts 276°
2026-05-01 10:25 -34.93114 149.05890 15842 ft 402 kts 261°
2026-05-01 10:26 -34.93646 149.02532 16400 ft 405 kts 261°
2026-05-01 10:26 -34.94179 148.99152 16955 ft 408 kts 261°
2026-05-01 10:26 -34.95244 148.92293 18059 ft 415 kts 261°
2026-05-01 10:27 -34.96312 148.85327 19046 ft 421 kts 261°
2026-05-01 10:27 -34.97385 148.78277 20028 ft 425 kts 261°
2026-05-01 10:28 -34.97924 148.74727 20512 ft 427 kts 261°
2026-05-01 10:28 -34.99005 148.67582 21440 ft 431 kts 261°
2026-05-01 10:28 -34.99548 148.63982 21892 ft 433 kts 261°
2026-05-01 10:29 -35.00645 148.56672 22803 ft 437 kts 261°
2026-05-01 10:29 -35.01193 148.53014 23250 ft 439 kts 261°
2026-05-01 10:30 -35.02293 148.45650 24069 ft 443 kts 261°
2026-05-01 10:30 -35.03400 148.38209 24731 ft 448 kts 261°
2026-05-01 10:31 -35.04324 148.31970 25257 ft 451 kts 261°
2026-05-01 10:31 -35.05440 148.24401 25876 ft 455 kts 261°
2026-05-01 10:32 -35.06561 148.16766 26500 ft 458 kts 261°
2026-05-01 10:32 -35.07122 148.12926 26771 ft 460 kts 261°
2026-05-01 10:32 -35.08247 148.05208 27327 ft 464 kts 261°
2026-05-01 10:33 -35.09377 147.97426 27867 ft 467 kts 261°
2026-05-01 10:33 -35.10510 147.89583 28410 ft 469 kts 261°
2026-05-01 10:34 -35.11074 147.85663 28803 ft 468 kts 261°
2026-05-01 10:34 -35.11642 147.81710 29184 ft 467 kts 261°
2026-05-01 10:34 -35.12201 147.77807 29562 ft 466 kts 261°
2026-05-01 10:35 -35.13309 147.70038 30255 ft 464 kts 261°
2026-05-01 10:35 -35.13861 147.66163 30300 ft 456 kts 261°
2026-05-01 10:35 -35.14393 147.62420 30300 ft 439 kts 262°
2026-05-01 10:35 -35.14907 147.58792 30313 ft 430 kts 262°
2026-05-01 10:36 -35.16338 147.47982 30303 ft 429 kts 267°
2026-05-01 10:37 -35.16123 147.40728 30302 ft 427 kts 276°
2026-05-01 10:37 -35.15136 147.29895 30302 ft 428 kts 278°
2026-05-01 10:38 -35.14456 147.22682 30292 ft 427 kts 278°
2026-05-01 10:38 -35.13800 147.15469 30296 ft 427 kts 278°
2026-05-01 10:39 -35.13152 147.08253 30285 ft 427 kts 278°
2026-05-01 10:39 -35.12502 147.01043 30290 ft 427 kts 278°
2026-05-01 10:40 -35.11846 146.93821 30282 ft 427 kts 278°
2026-05-01 10:40 -35.11181 146.86568 30280 ft 427 kts 278°
2026-05-01 10:41 -35.10516 146.79360 30278 ft 427 kts 278°
2026-05-01 10:42 -35.09511 146.68555 30274 ft 427 kts 278°
2026-05-01 10:42 -35.08836 146.61361 30268 ft 426 kts 278°
2026-05-01 10:43 -35.08158 146.54174 30267 ft 426 kts 278°
2026-05-01 10:43 -35.07475 146.46988 30269 ft 426 kts 278°
2026-05-01 10:44 -35.06790 146.39818 30258 ft 425 kts 278°
2026-05-01 10:44 -35.06101 146.32657 30258 ft 425 kts 278°
2026-05-01 10:45 -35.05408 146.25498 30255 ft 424 kts 278°
2026-05-01 10:45 -35.04713 146.18356 30260 ft 424 kts 278°
2026-05-01 10:46 -35.04013 146.11215 30253 ft 423 kts 278°
2026-05-01 10:46 -35.03310 146.04085 30247 ft 423 kts 278°
2026-05-01 10:47 -35.02602 145.96954 30249 ft 423 kts 278°
2026-05-01 10:47 -35.01892 145.89834 30243 ft 423 kts 278°
2026-05-01 10:48 -35.01177 145.82714 30238 ft 423 kts 278°
2026-05-01 10:48 -35.00454 145.75554 30236 ft 422 kts 278°
2026-05-01 10:49 -34.99732 145.68451 30248 ft 422 kts 278°
2026-05-01 10:49 -34.99007 145.61353 30240 ft 422 kts 278°
2026-05-01 10:50 -34.98280 145.54278 30243 ft 419 kts 278°
2026-05-01 10:50 -34.97535 145.47100 30235 ft 434 kts 278°
2026-05-01 10:51 -34.96764 145.39696 30241 ft 446 kts 278°
2026-05-01 10:51 -34.95976 145.32158 30223 ft 449 kts 278°
2026-05-01 10:52 -34.95182 145.24607 30220 ft 449 kts 278°
2026-05-01 10:52 -34.94383 145.17056 30220 ft 450 kts 279°
2026-05-01 10:53 -34.93576 145.09483 30219 ft 450 kts 279°
2026-05-01 10:53 -34.92761 145.01911 30224 ft 451 kts 279°
2026-05-01 10:54 -34.91936 144.94325 30219 ft 452 kts 279°
2026-05-01 10:54 -34.91106 144.86738 30213 ft 452 kts 279°
2026-05-01 10:55 -34.90273 144.79153 30206 ft 452 kts 279°
2026-05-01 10:55 -34.89433 144.71555 30206 ft 453 kts 279°
2026-05-01 10:56 -34.88582 144.63906 30212 ft 453 kts 279°
2026-05-01 10:56 -34.87733 144.56316 30208 ft 453 kts 279°
2026-05-01 10:57 -34.86879 144.48720 30203 ft 453 kts 280°
2026-05-01 10:57 -34.86019 144.41124 30202 ft 453 kts 280°
2026-05-01 10:58 -34.85155 144.33531 30199 ft 453 kts 280°
2026-05-01 10:58 -34.84287 144.25945 30196 ft 452 kts 280°
2026-05-01 10:59 -34.83414 144.18362 30195 ft 453 kts 280°
2026-05-01 10:59 -34.82535 144.10766 30197 ft 453 kts 280°
2026-05-01 11:00 -34.81653 144.03184 30189 ft 453 kts 280°
2026-05-01 11:00 -34.80763 143.95591 30193 ft 453 kts 280°
2026-05-01 11:01 -34.79871 143.88007 30189 ft 453 kts 280°
2026-05-01 11:01 -34.78973 143.80414 30179 ft 454 kts 280°
2026-05-01 11:02 -34.78070 143.72817 30185 ft 454 kts 280°
2026-05-01 11:02 -34.77163 143.65229 30182 ft 453 kts 281°
2026-05-01 11:03 -34.76247 143.57612 30178 ft 451 kts 281°
2026-05-01 11:03 -34.75490 143.51347 30178 ft 450 kts 281°
2026-05-01 11:04 -34.74578 143.43835 30172 ft 448 kts 281°
2026-05-01 11:04 -34.73510 143.35086 30173 ft 447 kts 281°
2026-05-01 11:05 -34.72747 143.28883 30172 ft 446 kts 281°
2026-05-01 11:05 -34.71829 143.21438 30170 ft 445 kts 281°
2026-05-01 11:06 -34.70909 143.14012 30170 ft 444 kts 281°
2026-05-01 11:06 -34.69985 143.06599 30170 ft 443 kts 281°
2026-05-01 11:07 -34.68595 142.95512 30166 ft 442 kts 281°
2026-05-01 11:07 -34.67662 142.88123 30164 ft 442 kts 281°
2026-05-01 11:08 -34.66726 142.80746 30156 ft 442 kts 281°
2026-05-01 11:09 -34.65307 142.69626 30154 ft 442 kts 282°
2026-05-01 11:09 -34.64360 142.62246 30155 ft 442 kts 282°
2026-05-01 11:10 -34.63765 142.51049 30157 ft 447 kts 271°
2026-05-01 11:10 -34.64140 142.43506 30145 ft 448 kts 269°
2026-05-01 11:11 -34.64596 142.35966 30148 ft 448 kts 269°
2026-05-01 11:11 -34.65041 142.28417 30140 ft 448 kts 269°
2026-05-01 11:12 -34.65466 142.20876 30139 ft 448 kts 269°
2026-05-01 11:12 -34.65880 142.13330 30135 ft 448 kts 269°
2026-05-01 11:13 -34.66288 142.05782 30138 ft 448 kts 269°
2026-05-01 11:13 -34.66691 141.98244 30134 ft 447 kts 269°
2026-05-01 11:14 -34.67090 141.90697 30138 ft 447 kts 269°
2026-05-01 11:14 -34.67485 141.83165 30129 ft 447 kts 269°
2026-05-01 11:15 -34.67875 141.75627 30128 ft 447 kts 269°
2026-05-01 11:15 -34.68260 141.68096 30122 ft 447 kts 269°
2026-05-01 11:16 -34.68642 141.60515 30124 ft 447 kts 269°
2026-05-01 11:16 -34.69018 141.52988 30118 ft 446 kts 269°
2026-05-01 11:17 -34.69389 141.45458 30117 ft 447 kts 269°
2026-05-01 11:17 -34.69755 141.37922 30115 ft 447 kts 269°
2026-05-01 11:18 -34.70118 141.30387 30113 ft 443 kts 270°
2026-05-01 11:18 -34.70471 141.22992 30111 ft 437 kts 270°
2026-05-01 11:19 -34.70815 141.15623 30105 ft 437 kts 270°
2026-05-01 11:19 -34.71153 141.08248 30099 ft 437 kts 270°
2026-05-01 11:20 -34.71489 141.00869 30100 ft 437 kts 270°
2026-05-01 11:20 -34.71821 140.93486 30098 ft 437 kts 270°
2026-05-01 11:21 -34.72149 140.86106 30091 ft 438 kts 270°
2026-05-01 11:21 -34.72472 140.78718 30093 ft 438 kts 270°
2026-05-01 11:22 -34.72791 140.71327 30086 ft 438 kts 270°
2026-05-01 11:22 -34.73106 140.63927 30083 ft 438 kts 271°
2026-05-01 11:23 -34.73416 140.56528 30079 ft 438 kts 271°
2026-05-01 11:23 -34.73721 140.49127 30075 ft 439 kts 271°
2026-05-01 11:24 -34.74024 140.41668 30075 ft 439 kts 271°
2026-05-01 11:25 -34.74467 140.30544 30073 ft 439 kts 271°
2026-05-01 11:25 -34.74900 140.19414 30067 ft 440 kts 271°
2026-05-01 11:26 -34.75324 140.08265 30058 ft 440 kts 271°
2026-05-01 11:27 -34.75602 140.00826 30062 ft 440 kts 271°
2026-05-01 11:27 -34.75739 139.97131 29947 ft 430 kts 271°
2026-05-01 11:27 -34.75874 139.93574 29131 ft 415 kts 272°
2026-05-01 11:27 -34.76001 139.90084 27798 ft 413 kts 272°
2026-05-01 11:28 -34.76125 139.86597 26583 ft 411 kts 272°
2026-05-01 11:28 -34.76249 139.83162 25566 ft 404 kts 272°
2026-05-01 11:28 -34.76369 139.79804 24966 ft 389 kts 272°
2026-05-01 11:29 -34.76595 139.73323 24036 ft 382 kts 273°
2026-05-01 11:29 -34.76704 139.70099 23554 ft 381 kts 273°
2026-05-01 11:29 -34.76920 139.63691 22532 ft 377 kts 273°
2026-05-01 11:30 -34.77027 139.60523 22050 ft 374 kts 273°
2026-05-01 11:30 -34.77133 139.57371 21570 ft 372 kts 273°
2026-05-01 11:30 -34.77237 139.54235 21090 ft 370 kts 273°
2026-05-01 11:30 -34.77339 139.51123 20627 ft 367 kts 273°
2026-05-01 11:31 -34.77440 139.48028 20157 ft 366 kts 273°
2026-05-01 11:31 -34.77543 139.44899 19678 ft 364 kts 273°
2026-05-01 11:31 -34.77750 139.41826 19189 ft 368 kts 264°
2026-05-01 11:31 -34.78540 139.38848 18744 ft 373 kts 252°
2026-05-01 11:32 -34.79611 139.35967 18264 ft 374 kts 250°
2026-05-01 11:32 -34.80718 139.33110 17730 ft 373 kts 250°
2026-05-01 11:32 -34.81819 139.30263 17241 ft 371 kts 250°
2026-05-01 11:32 -34.82908 139.27430 16749 ft 368 kts 250°
2026-05-01 11:33 -34.83984 139.24613 16271 ft 366 kts 250°
2026-05-01 11:33 -34.85052 139.21807 15793 ft 364 kts 250°
2026-05-01 11:33 -34.86114 139.19015 15314 ft 362 kts 250°
2026-05-01 11:33 -34.87165 139.16243 14842 ft 360 kts 250°
2026-05-01 11:34 -34.88214 139.13476 14357 ft 359 kts 250°
2026-05-01 11:34 -34.89258 139.10714 13867 ft 358 kts 250°
2026-05-01 11:34 -34.90298 139.07963 13349 ft 356 kts 250°
2026-05-01 11:34 -34.90982 139.06153 13035 ft 354 kts 250°
2026-05-01 11:35 -34.92294 139.02681 12437 ft 350 kts 250°
2026-05-01 11:35 -34.93305 139.00002 11964 ft 347 kts 250°
2026-05-01 11:35 -34.94308 138.97341 11506 ft 344 kts 250°
2026-05-01 11:35 -34.95302 138.94700 11050 ft 341 kts 250°
2026-05-01 11:36 -34.96286 138.92085 10715 ft 335 kts 250°
2026-05-01 11:36 -34.97240 138.89557 10619 ft 321 kts 250°
2026-05-01 11:36 -34.98154 138.87129 10487 ft 310 kts 250°
2026-05-01 11:36 -34.99042 138.84766 10253 ft 304 kts 250°
2026-05-01 11:37 -34.99635 138.83180 9991 ft 304 kts 250°
2026-05-01 11:37 -35.00794 138.80083 9493 ft 302 kts 250°
2026-05-01 11:37 -35.01662 138.77760 9092 ft 300 kts 250°
2026-05-01 11:37 -35.02246 138.76195 8799 ft 300 kts 250°
2026-05-01 11:38 -35.03109 138.73885 8503 ft 296 kts 251°
2026-05-01 11:38 -35.03962 138.71607 8133 ft 295 kts 250°
2026-05-01 11:38 -35.04807 138.69346 7592 ft 291 kts 250°
2026-05-01 11:38 -35.05645 138.67114 6963 ft 286 kts 251°
2026-05-01 11:39 -35.06458 138.64936 6475 ft 277 kts 252°
2026-05-01 11:39 -35.07257 138.62802 6112 ft 277 kts 251°
2026-05-01 11:39 -35.08052 138.60654 5751 ft 277 kts 252°
2026-05-01 11:39 -35.08843 138.58514 5458 ft 275 kts 251°
2026-05-01 11:40 -35.09619 138.56435 5371 ft 263 kts 251°
2026-05-01 11:40 -35.10367 138.54435 5161 ft 258 kts 252°
2026-05-01 11:40 -35.11111 138.52426 4794 ft 260 kts 252°
2026-05-01 11:40 -35.11856 138.50413 4443 ft 261 kts 252°
2026-05-01 11:41 -35.12599 138.48410 4208 ft 255 kts 252°
2026-05-01 11:41 -35.13308 138.46475 4052 ft 244 kts 255°
2026-05-01 11:41 -35.13599 138.44552 3868 ft 220 kts 283°
2026-05-01 11:41 -35.13104 138.42924 3704 ft 196 kts 313°
2026-05-01 11:42 -35.12154 138.41826 3555 ft 186 kts 327°
2026-05-01 11:42 -35.11109 138.40893 3469 ft 186 kts 329°
2026-05-01 11:42 -35.10059 138.39985 3366 ft 185 kts 329°
2026-05-01 11:42 -35.09024 138.39082 3243 ft 178 kts 329°
2026-05-01 11:43 -35.08036 138.38217 3064 ft 172 kts 330°
2026-05-01 11:43 -35.06976 138.37577 2820 ft 166 kts 349°
2026-05-01 11:43 -35.05841 138.37645 2505 ft 166 kts 18°
2026-05-01 11:44 -35.04136 138.39542 2014 ft 168 kts 43°
2026-05-01 11:44 -35.03403 138.40646 1744 ft 165 kts 43°
2026-05-01 11:44 -35.02692 138.41716 1558 ft 158 kts 43°
2026-05-01 11:44 -35.02040 138.42695 1535 ft 135 kts 43°
2026-05-01 11:45 -35.01502 138.43505 1503 ft 115 kts 41°
2026-05-01 11:45 -35.00992 138.44248 1540 ft 113 kts 41°
2026-05-01 11:45 -35.00483 138.44983 1409 ft 114 kts 43°
2026-05-01 11:45 -34.99964 138.45733 1257 ft 117 kts 42°
2026-05-01 11:46 -34.99437 138.46499 1089 ft 118 kts 43°
2026-05-01 11:46 -34.98910 138.47263 973 ft 118 kts 44°
2026-05-01 11:46 -34.98375 138.48035 968 ft 120 kts 44°
2026-05-01 11:46 -34.97839 138.48819 816 ft 123 kts 46°
2026-05-01 11:47 -34.97293 138.49609 620 ft 119 kts 46°
2026-05-01 11:47 -34.96762 138.50388 387 ft 120 kts 45°
2026-05-01 11:47 -34.96222 138.51179 214 ft 123 kts 49°
2026-05-01 11:47 -34.95679 138.51974 55 ft 121 kts 47°
2026-05-01 11:48 -34.95165 138.52720 32 ft 99 kts 49°
2026-05-01 11:48 -34.94791 138.53266 32 ft 73 kts 50°
2026-05-01 11:48 -34.94502 138.53687 32 ft 58 kts 51°
2026-05-01 11:48 -34.94269 138.54030 32 ft 47 kts 50°
2026-05-01 11:49 -34.94119 138.54244 32 ft 19 kts 40°
2026-05-01 11:49 -34.94034 138.54264 31 ft 7 kts 350°
2026-05-01 11:49 -34.94021 138.54259 32 ft 4 kts 341°
2026-05-01 11:49 -34.93982 138.54216 31 ft 7 kts 314°
2026-05-01 11:50 -34.93955 138.54189 32 ft 0 kts 321°
2026-05-01 11:50 -34.93950 138.54164 32 ft 8 kts 267°
2026-05-01 11:51 -34.93995 138.54084 31 ft 12 kts 228°
2026-05-01 11:51 -34.94045 138.54012 32 ft 11 kts 230°
2026-05-01 11:51 -34.94119 138.53906 31 ft 21 kts 230°
2026-05-01 11:51 -34.94212 138.53771 32 ft 20 kts 230°
2026-05-01 11:52 -34.94243 138.53656 32 ft 8 kts 296°
2026-05-01 11:52 -34.94220 138.53612 32 ft 4 kts 302°
2026-05-01 11:52 -34.94202 138.53590 32 ft 5 kts 320°
2026-05-01 11:52 -34.94161 138.53549 32 ft 8 kts 320°
2026-05-01 11:53 -34.94139 138.53526 32 ft 0 kts 320°